User: anonymous   Login
Location: Arroyo Grande
(40.2671°N, 4.2512°W)
Time: 09:59:52
(UTC+00:00)
Language:

Cosmos 1386 Rocket - Orbit

View from above orbital plane
View from above orbital plane
View from above satellite
View from above satellite

Ground track
Ground track

The orbit data is extracted from the following two-line orbital elements,

1 13354U 82069B   23150.80107429  .00000174  00000-0  15343-3 0  9994
2 13354  82.9582 164.1593 0052809 143.7008 216.7752 13.79027263 57347
Epoch (UTC): 30 May 2023 19:13:32
Eccentricity: 0.0052809
inclination: 82.9582°
perigee height: 928 km
apogee height: 1006 km
right ascension of ascending node: 164.1593°
argument of perigee: 143.7008°
revolutions per day: 13.79027263
mean anomaly at epoch: 216.7752°
orbit number at epoch: 5734

The dashed part of the orbit path shows where the satellite is in the earth's shadow,  

DLR